Year,Month,Day,Hour,Minute,Value (Times are PST for temperature in C)
2016,08,13,00,00,16.00
2016,08,13,00,01,16.10
2016,08,13,00,02,16.10
2016,08,13,00,03,16.10
2016,08,13,00,04,16.10
2016,08,13,00,05,16.10
2016,08,13,00,06,16.10
2016,08,13,00,07,16.10
2016,08,13,00,08,16.10
2016,08,13,00,09,16.10
2016,08,13,00,10,16.10
2016,08,13,00,11,16.10
2016,08,13,00,12,16.10
2016,08,13,00,13,16.10
2016,08,13,00,14,16.10
2016,08,13,00,15,16.10
2016,08,13,00,16,16.20
2016,08,13,00,17,16.20
2016,08,13,00,18,16.20
2016,08,13,00,19,16.20
2016,08,13,00,20,16.20
2016,08,13,00,21,16.30
2016,08,13,00,22,16.30
2016,08,13,00,23,16.30
2016,08,13,00,24,16.30
2016,08,13,00,25,16.30
2016,08,13,00,26,16.30
2016,08,13,00,27,16.30
2016,08,13,00,28,16.30
2016,08,13,00,29,16.30
2016,08,13,00,30,16.30
2016,08,13,00,31,16.30
2016,08,13,00,32,16.30
2016,08,13,00,33,16.30
2016,08,13,00,34,16.30
2016,08,13,00,35,16.30
2016,08,13,00,36,16.30
2016,08,13,00,37,16.40
2016,08,13,00,38,16.40
2016,08,13,00,39,16.40
2016,08,13,00,40,16.40
2016,08,13,00,41,16.40
2016,08,13,00,42,16.40
2016,08,13,00,43,16.40
2016,08,13,00,44,16.50
2016,08,13,00,45,16.50
2016,08,13,00,46,16.50
2016,08,13,00,47,16.50
2016,08,13,00,48,16.50
2016,08,13,00,49,16.50
2016,08,13,00,50,16.50
2016,08,13,00,51,16.60
2016,08,13,00,52,16.60
2016,08,13,00,53,16.60
2016,08,13,00,54,16.60
2016,08,13,00,55,16.60
2016,08,13,00,56,16.60
2016,08,13,00,57,16.60
2016,08,13,00,58,16.70
2016,08,13,00,59,16.70
2016,08,13,01,00,16.70
2016,08,13,01,01,16.70
2016,08,13,01,02,16.70
2016,08,13,01,03,16.70
2016,08,13,01,04,16.80
2016,08,13,01,05,16.80
2016,08,13,01,06,16.80
2016,08,13,01,07,16.80
2016,08,13,01,08,16.80
2016,08,13,01,09,16.80
2016,08,13,01,10,16.80
2016,08,13,01,11,16.80
2016,08,13,01,12,16.80
2016,08,13,01,13,16.80
2016,08,13,01,14,16.80
2016,08,13,01,15,16.80
2016,08,13,01,16,16.80
2016,08,13,01,17,16.80
2016,08,13,01,18,16.80
2016,08,13,01,19,16.90
2016,08,13,01,20,16.80
2016,08,13,01,21,16.80
2016,08,13,01,22,16.80
2016,08,13,01,23,16.80
2016,08,13,01,24,16.80
2016,08,13,01,25,16.80
2016,08,13,01,26,16.90
2016,08,13,01,27,16.90
2016,08,13,01,28,16.90
2016,08,13,01,29,16.90
2016,08,13,01,30,16.90
2016,08,13,01,31,16.90
2016,08,13,01,32,16.90
2016,08,13,01,33,16.90
2016,08,13,01,34,16.90
2016,08,13,01,35,16.90
2016,08,13,01,36,16.80
2016,08,13,01,37,16.80
2016,08,13,01,38,16.80
2016,08,13,01,39,16.80
2016,08,13,01,40,16.80
2016,08,13,01,41,16.80
2016,08,13,01,42,16.80
2016,08,13,01,43,16.80
2016,08,13,01,44,16.80
2016,08,13,01,45,16.80
2016,08,13,01,46,16.80
2016,08,13,01,47,16.80
2016,08,13,01,48,16.80
2016,08,13,01,49,16.80
2016,08,13,01,50,16.80
2016,08,13,01,51,16.80
2016,08,13,01,52,16.70
2016,08,13,01,53,16.70
2016,08,13,01,54,16.70
2016,08,13,01,55,16.70
2016,08,13,01,56,16.70
2016,08,13,01,57,16.70
2016,08,13,01,58,16.70
2016,08,13,01,59,16.70
2016,08,13,02,00,16.70
2016,08,13,02,01,16.80
2016,08,13,02,02,16.80
2016,08,13,02,03,16.80
2016,08,13,02,04,16.70
2016,08,13,02,05,16.70
2016,08,13,02,06,16.70
2016,08,13,02,07,16.70
2016,08,13,02,08,16.70
2016,08,13,02,09,16.70
2016,08,13,02,10,16.70
2016,08,13,02,11,16.70
2016,08,13,02,12,16.70
2016,08,13,02,13,16.60
2016,08,13,02,14,16.60
2016,08,13,02,15,16.60
2016,08,13,02,16,16.60
2016,08,13,02,17,16.50
2016,08,13,02,18,16.50
2016,08,13,02,19,16.50
2016,08,13,02,20,16.50
2016,08,13,02,21,16.40
2016,08,13,02,22,16.40
2016,08,13,02,23,16.40
2016,08,13,02,24,16.40
2016,08,13,02,25,16.40
2016,08,13,02,26,16.40
2016,08,13,02,27,16.40
2016,08,13,02,28,16.30
2016,08,13,02,29,16.30
2016,08,13,02,30,16.30
2016,08,13,02,31,16.30
2016,08,13,02,32,16.30
2016,08,13,02,33,16.30
2016,08,13,02,34,16.30
2016,08,13,02,35,16.20
2016,08,13,02,36,16.20
2016,08,13,02,37,16.20
2016,08,13,02,38,16.20
2016,08,13,02,39,16.20
2016,08,13,02,40,16.20
2016,08,13,02,41,16.20
2016,08,13,02,42,16.20
2016,08,13,02,43,16.20
2016,08,13,02,44,16.20
2016,08,13,02,45,16.20
2016,08,13,02,46,16.20
2016,08,13,02,47,16.20
2016,08,13,02,48,16.20
2016,08,13,02,49,16.20
2016,08,13,02,50,16.10
2016,08,13,02,51,15.90
2016,08,13,02,52,15.90
2016,08,13,02,53,15.80
2016,08,13,02,54,15.80
2016,08,13,02,55,15.70
2016,08,13,02,56,15.70
2016,08,13,02,57,15.60
2016,08,13,02,58,15.60
2016,08,13,02,59,15.60
2016,08,13,03,00,15.60
2016,08,13,03,01,15.60
2016,08,13,03,02,15.60
2016,08,13,03,03,15.60
2016,08,13,03,04,15.50
2016,08,13,03,05,15.50
2016,08,13,03,06,15.50
2016,08,13,03,07,15.50
2016,08,13,03,08,15.50
2016,08,13,03,09,15.50
2016,08,13,03,10,15.50
2016,08,13,03,11,15.50
2016,08,13,03,12,15.50
2016,08,13,03,13,15.50
2016,08,13,03,14,15.50
2016,08,13,03,15,15.50
2016,08,13,03,16,15.50
2016,08,13,03,17,15.50
2016,08,13,03,18,15.50
2016,08,13,03,19,15.50
2016,08,13,03,20,15.50
2016,08,13,03,21,15.50
2016,08,13,03,22,15.50
2016,08,13,03,23,15.50
2016,08,13,03,24,15.50
2016,08,13,03,25,15.50
2016,08,13,03,26,15.50
2016,08,13,03,27,15.50
2016,08,13,03,28,15.50
2016,08,13,03,29,15.50
2016,08,13,03,30,15.60
2016,08,13,03,31,15.60
2016,08,13,03,32,15.60
2016,08,13,03,33,15.60
2016,08,13,03,34,15.60
2016,08,13,03,35,15.60
2016,08,13,03,36,15.60
2016,08,13,03,37,15.50
2016,08,13,03,38,15.60
2016,08,13,03,39,15.50
2016,08,13,03,40,15.50
2016,08,13,03,41,15.50
2016,08,13,03,42,15.50
2016,08,13,03,43,15.50
2016,08,13,03,44,15.50
2016,08,13,03,45,15.50
2016,08,13,03,46,15.50
2016,08,13,03,47,15.50
2016,08,13,03,48,15.50
2016,08,13,03,49,15.50
2016,08,13,03,50,15.50
2016,08,13,03,51,15.50
2016,08,13,03,52,15.50
2016,08,13,03,53,15.50
2016,08,13,03,54,15.50
2016,08,13,03,55,15.50
2016,08,13,03,56,15.60
2016,08,13,03,57,15.60
2016,08,13,03,58,15.60
2016,08,13,03,59,15.60
2016,08,13,04,00,15.60
2016,08,13,04,01,15.60
2016,08,13,04,02,15.60
2016,08,13,04,03,15.60
2016,08,13,04,04,15.60
2016,08,13,04,05,15.60
2016,08,13,04,06,15.60
2016,08,13,04,07,15.60
2016,08,13,04,08,15.60
2016,08,13,04,09,15.60
2016,08,13,04,10,15.60
2016,08,13,04,11,15.60
2016,08,13,04,12,15.60
2016,08,13,04,13,15.60
2016,08,13,04,14,15.60
2016,08,13,04,15,15.60
2016,08,13,04,16,15.60
2016,08,13,04,17,15.60
2016,08,13,04,18,15.60
2016,08,13,04,19,15.60
2016,08,13,04,20,15.60
2016,08,13,04,21,15.60
2016,08,13,04,22,15.60
2016,08,13,04,23,15.60
2016,08,13,04,24,15.60
2016,08,13,04,25,15.60
2016,08,13,04,26,15.60
2016,08,13,04,27,15.50
2016,08,13,04,28,15.60
2016,08,13,04,29,15.50
2016,08,13,04,30,15.60
2016,08,13,04,31,15.50
2016,08,13,04,32,15.50
2016,08,13,04,33,15.50
2016,08,13,04,34,15.50
2016,08,13,04,35,15.50
2016,08,13,04,36,15.50
2016,08,13,04,37,15.50
2016,08,13,04,38,15.50
2016,08,13,04,39,15.50
2016,08,13,04,40,15.50
2016,08,13,04,41,15.50
2016,08,13,04,42,15.50
2016,08,13,04,43,15.60
2016,08,13,04,44,15.50
2016,08,13,04,45,15.60
2016,08,13,04,46,15.60
2016,08,13,04,47,15.60
2016,08,13,04,48,15.60
2016,08,13,04,49,15.60
2016,08,13,04,50,15.60
2016,08,13,04,51,15.50
2016,08,13,04,52,15.50
2016,08,13,04,53,15.50
2016,08,13,04,54,15.50
2016,08,13,04,55,15.50
2016,08,13,04,56,15.50
2016,08,13,04,57,15.50
2016,08,13,04,58,15.50
2016,08,13,04,59,15.50
2016,08,13,05,00,15.40
2016,08,13,05,01,15.40
2016,08,13,05,02,15.40
2016,08,13,05,03,15.40
2016,08,13,05,04,15.40
2016,08,13,05,05,15.40
2016,08,13,05,06,15.40
2016,08,13,05,07,15.40
2016,08,13,05,08,15.40
2016,08,13,05,09,15.40
2016,08,13,05,10,15.40
2016,08,13,05,11,15.40
2016,08,13,05,12,15.40
2016,08,13,05,13,15.40
2016,08,13,05,14,15.40
2016,08,13,05,15,15.40
2016,08,13,05,16,15.40
2016,08,13,05,17,15.40
2016,08,13,05,18,15.40
2016,08,13,05,19,15.40
2016,08,13,05,20,15.40
2016,08,13,05,21,15.40
2016,08,13,05,22,15.40
2016,08,13,05,23,15.40
2016,08,13,05,24,15.30
2016,08,13,05,25,15.30
2016,08,13,05,26,15.30
2016,08,13,05,27,15.30
2016,08,13,05,28,15.30
2016,08,13,05,29,15.30
2016,08,13,05,30,15.30
2016,08,13,05,31,15.30
2016,08,13,05,32,15.30
2016,08,13,05,33,15.20
2016,08,13,05,34,15.20
2016,08,13,05,35,15.20
2016,08,13,05,36,15.20
2016,08,13,05,37,15.20
2016,08,13,05,38,15.20
2016,08,13,05,39,15.20
2016,08,13,05,40,15.20
2016,08,13,05,41,15.10
2016,08,13,05,42,15.10
2016,08,13,05,43,15.10
2016,08,13,05,44,15.00
2016,08,13,05,45,15.00
2016,08,13,05,46,15.00
2016,08,13,05,47,14.90
2016,08,13,05,48,14.90
2016,08,13,05,49,14.90
2016,08,13,05,50,14.90
2016,08,13,05,51,14.90
2016,08,13,05,52,14.90
2016,08,13,05,53,14.90
2016,08,13,05,54,14.90
2016,08,13,05,55,14.90
2016,08,13,05,56,14.90
2016,08,13,05,57,14.90
2016,08,13,05,58,14.90
2016,08,13,05,59,14.90
2016,08,13,06,00,14.90
2016,08,13,06,01,14.90
2016,08,13,06,02,14.90
2016,08,13,06,03,14.90
2016,08,13,06,04,14.90
2016,08,13,06,05,14.90
2016,08,13,06,06,14.90
2016,08,13,06,07,14.80
2016,08,13,06,08,14.80
2016,08,13,06,09,14.80
2016,08,13,06,10,14.80
2016,08,13,06,11,14.80
2016,08,13,06,12,14.70
2016,08,13,06,13,14.70
2016,08,13,06,14,14.70
2016,08,13,06,15,14.70
2016,08,13,06,16,14.70
2016,08,13,06,17,14.70
2016,08,13,06,18,14.70
2016,08,13,06,19,14.70
2016,08,13,06,20,14.70
2016,08,13,06,21,14.70
2016,08,13,06,22,14.70
2016,08,13,06,23,14.70
2016,08,13,06,24,14.70
2016,08,13,06,25,14.70
2016,08,13,06,26,14.70
2016,08,13,06,27,14.70
2016,08,13,06,28,14.70
2016,08,13,06,29,14.70
2016,08,13,06,30,14.70
2016,08,13,06,31,14.70
2016,08,13,06,32,14.70
2016,08,13,06,33,14.70
2016,08,13,06,34,14.70
2016,08,13,06,35,14.70
2016,08,13,06,36,14.70
2016,08,13,06,37,14.70
2016,08,13,06,38,14.80
2016,08,13,06,39,14.80
2016,08,13,06,40,14.80
2016,08,13,06,41,14.80
2016,08,13,06,42,14.90
2016,08,13,06,43,15.00
2016,08,13,06,44,15.10
2016,08,13,06,45,15.10
2016,08,13,06,46,15.10
2016,08,13,06,47,15.20
2016,08,13,06,48,15.20
2016,08,13,06,49,15.20
2016,08,13,06,50,15.30
2016,08,13,06,51,15.30
2016,08,13,06,52,15.40
2016,08,13,06,53,15.50
2016,08,13,06,54,15.50
2016,08,13,06,55,15.50
2016,08,13,06,56,15.60
2016,08,13,06,57,15.60
2016,08,13,06,58,15.70
2016,08,13,06,59,15.80
2016,08,13,07,00,15.90
2016,08,13,07,01,16.00
2016,08,13,07,02,16.10
2016,08,13,07,03,16.20
2016,08,13,07,04,16.20
2016,08,13,07,05,16.30
2016,08,13,07,06,16.30
2016,08,13,07,07,16.30
2016,08,13,07,08,16.40
2016,08,13,07,09,16.40
2016,08,13,07,10,16.50
2016,08,13,07,11,16.60
2016,08,13,07,12,16.60
2016,08,13,07,13,16.70
2016,08,13,07,14,16.80
2016,08,13,07,15,16.80
2016,08,13,07,16,16.90
2016,08,13,07,17,17.00
2016,08,13,07,18,17.00
2016,08,13,07,19,17.00
2016,08,13,07,20,17.10
2016,08,13,07,21,17.10
2016,08,13,07,22,17.10
2016,08,13,07,23,17.10
2016,08,13,07,24,17.20
2016,08,13,07,25,17.30
2016,08,13,07,26,17.40
2016,08,13,07,27,17.50
2016,08,13,07,28,17.50
2016,08,13,07,29,17.60
2016,08,13,07,30,17.70
2016,08,13,07,31,17.70
2016,08,13,07,32,17.80
2016,08,13,07,33,17.80
2016,08,13,07,34,17.80
2016,08,13,07,35,17.70
2016,08,13,07,36,17.70
2016,08,13,07,37,17.70
2016,08,13,07,38,17.60
2016,08,13,07,39,17.60
2016,08,13,07,40,17.50
2016,08,13,07,41,17.50
2016,08,13,07,42,17.50
2016,08,13,07,43,17.40
2016,08,13,07,44,17.40
2016,08,13,07,45,17.40
2016,08,13,07,46,17.40
2016,08,13,07,47,17.50
2016,08,13,07,48,17.50
2016,08,13,07,49,17.60
2016,08,13,07,50,17.70
2016,08,13,07,51,17.80
2016,08,13,07,52,17.90
2016,08,13,07,53,17.90
2016,08,13,07,54,17.90
2016,08,13,07,55,18.00
2016,08,13,07,56,18.10
2016,08,13,07,57,18.10
2016,08,13,07,58,18.20
2016,08,13,07,59,18.30
2016,08,13,08,00,18.40
2016,08,13,08,01,18.40
2016,08,13,08,02,18.50
2016,08,13,08,03,18.50
2016,08,13,08,04,18.50
2016,08,13,08,05,18.50
2016,08,13,08,06,18.40
2016,08,13,08,07,18.30
2016,08,13,08,08,18.20
2016,08,13,08,09,18.10
2016,08,13,08,10,18.00
2016,08,13,08,11,17.90
2016,08,13,08,12,17.80
2016,08,13,08,13,17.70
2016,08,13,08,14,17.60
2016,08,13,08,15,17.50
2016,08,13,08,16,17.40
2016,08,13,08,17,17.40
2016,08,13,08,18,17.40
2016,08,13,08,19,17.40
2016,08,13,08,20,17.40
2016,08,13,08,21,17.40
2016,08,13,08,22,17.50
2016,08,13,08,23,17.50
2016,08,13,08,24,17.50
2016,08,13,08,25,17.60
2016,08,13,08,26,17.60
2016,08,13,08,27,17.60
2016,08,13,08,28,17.70
2016,08,13,08,29,17.80
2016,08,13,08,30,17.80
2016,08,13,08,31,17.90
2016,08,13,08,32,18.00
2016,08,13,08,33,18.10
2016,08,13,08,34,18.20
2016,08,13,08,35,18.30
2016,08,13,08,36,18.30
2016,08,13,08,37,18.30
2016,08,13,08,38,18.20
2016,08,13,08,39,18.10
2016,08,13,08,40,18.00
2016,08,13,08,41,17.80
2016,08,13,08,42,17.60
2016,08,13,08,43,17.40
2016,08,13,08,44,17.10
2016,08,13,08,45,16.90
2016,08,13,08,46,16.80
2016,08,13,08,47,16.60
2016,08,13,08,48,16.50
2016,08,13,08,49,16.40
2016,08,13,08,50,16.30
2016,08,13,08,51,16.30
2016,08,13,08,52,16.30
2016,08,13,08,53,16.30
2016,08,13,08,54,16.30
2016,08,13,08,55,16.30
2016,08,13,08,56,16.30
2016,08,13,08,57,16.30
2016,08,13,08,58,16.40
2016,08,13,08,59,16.40
2016,08,13,09,00,16.40
2016,08,13,09,01,16.50
2016,08,13,09,02,16.50
2016,08,13,09,03,16.50
2016,08,13,09,04,16.60
2016,08,13,09,05,16.60
2016,08,13,09,06,16.60
2016,08,13,09,07,16.60
2016,08,13,09,08,16.70
2016,08,13,09,09,16.70
2016,08,13,09,10,16.70
2016,08,13,09,11,16.70
2016,08,13,09,12,16.70
2016,08,13,09,13,16.80
2016,08,13,09,14,16.80
2016,08,13,09,15,16.90
2016,08,13,09,16,16.90
2016,08,13,09,17,17.00
2016,08,13,09,18,17.10
2016,08,13,09,19,17.10
2016,08,13,09,20,17.10
2016,08,13,09,21,17.10
2016,08,13,09,22,17.10
2016,08,13,09,23,17.10
2016,08,13,09,24,17.20
2016,08,13,09,25,17.20
2016,08,13,09,26,17.20
2016,08,13,09,27,17.30
2016,08,13,09,28,17.30
2016,08,13,09,29,17.40
2016,08,13,09,30,17.50
2016,08,13,09,31,17.60
2016,08,13,09,32,17.70
2016,08,13,09,33,17.80
2016,08,13,09,34,17.90
2016,08,13,09,35,17.90
2016,08,13,09,36,18.10
2016,08,13,09,37,18.10
2016,08,13,09,38,18.20
2016,08,13,09,39,18.30
2016,08,13,09,40,18.30
2016,08,13,09,41,18.30
2016,08,13,09,42,18.30
2016,08,13,09,43,18.30
2016,08,13,09,44,18.30
2016,08,13,09,45,18.30
2016,08,13,09,46,18.30
2016,08,13,09,47,18.30
2016,08,13,09,48,18.30
2016,08,13,09,49,18.30
2016,08,13,09,50,18.30
2016,08,13,09,51,18.30
2016,08,13,09,52,18.20
2016,08,13,09,53,18.20
2016,08,13,09,54,18.00
2016,08,13,09,55,17.90
2016,08,13,09,56,17.90
2016,08,13,09,57,17.80
2016,08,13,09,58,17.80
2016,08,13,09,59,17.80
2016,08,13,10,00,17.80
2016,08,13,10,01,17.80
2016,08,13,10,02,17.80
2016,08,13,10,03,17.80
2016,08,13,10,04,17.90
2016,08,13,10,05,17.90
2016,08,13,10,06,17.90
2016,08,13,10,07,17.90
2016,08,13,10,08,17.90
2016,08,13,10,09,17.90
2016,08,13,10,10,17.90
2016,08,13,10,11,17.80
2016,08,13,10,12,17.80
2016,08,13,10,13,17.80
2016,08,13,10,14,17.80
2016,08,13,10,15,17.80
2016,08,13,10,16,17.70
2016,08,13,10,17,17.70
2016,08,13,10,18,17.70
2016,08,13,10,19,17.70
2016,08,13,10,20,17.70
2016,08,13,10,21,17.70
2016,08,13,10,22,17.80
2016,08,13,10,23,17.80
2016,08,13,10,24,17.90
2016,08,13,10,25,18.00
2016,08,13,10,26,18.10
2016,08,13,10,27,18.20
2016,08,13,10,28,18.40
2016,08,13,10,29,18.50
2016,08,13,10,30,18.70
2016,08,13,10,31,18.80
2016,08,13,10,32,19.00
2016,08,13,10,33,19.10
2016,08,13,10,34,19.20
2016,08,13,10,35,19.20
2016,08,13,10,36,19.10
2016,08,13,10,37,18.90
2016,08,13,10,38,18.80
2016,08,13,10,39,18.80
2016,08,13,10,40,18.60
2016,08,13,10,41,18.50
2016,08,13,10,42,18.30
2016,08,13,10,43,18.20
2016,08,13,10,44,18.10
2016,08,13,10,45,18.10
2016,08,13,10,46,18.00
2016,08,13,10,47,18.00
2016,08,13,10,48,17.90
2016,08,13,10,49,17.90
2016,08,13,10,50,17.90
2016,08,13,10,51,17.90
2016,08,13,10,52,17.90
2016,08,13,10,53,17.90
2016,08,13,10,54,18.00
2016,08,13,10,55,18.00
2016,08,13,10,56,18.10
2016,08,13,10,57,18.10
2016,08,13,10,58,18.00
2016,08,13,10,59,18.00
2016,08,13,11,00,17.90
2016,08,13,11,01,17.90
2016,08,13,11,02,17.90
2016,08,13,11,03,17.80
2016,08,13,11,04,17.80
2016,08,13,11,05,17.70
2016,08,13,11,06,17.70
2016,08,13,11,07,17.70
2016,08,13,11,08,17.80
2016,08,13,11,09,17.80
2016,08,13,11,10,17.90
2016,08,13,11,11,17.90
2016,08,13,11,12,18.00
2016,08,13,11,13,18.10
2016,08,13,11,14,18.30
2016,08,13,11,15,18.40
2016,08,13,11,16,18.30
2016,08,13,11,17,18.20
2016,08,13,11,18,18.00
2016,08,13,11,19,17.90
2016,08,13,11,20,17.70
2016,08,13,11,21,17.60
2016,08,13,11,22,17.40
2016,08,13,11,23,17.30
2016,08,13,11,24,17.20
2016,08,13,11,25,17.20
2016,08,13,11,26,17.10
2016,08,13,11,27,17.10
2016,08,13,11,28,17.10
2016,08,13,11,29,17.10
2016,08,13,11,30,17.00
2016,08,13,11,31,17.00
2016,08,13,11,32,17.00
2016,08,13,11,33,17.00
2016,08,13,11,34,16.90
2016,08,13,11,35,16.90
2016,08,13,11,36,16.80
2016,08,13,11,37,16.80
2016,08,13,11,38,16.70
2016,08,13,11,39,16.70
2016,08,13,11,40,16.70
2016,08,13,11,41,16.70
2016,08,13,11,42,16.80
2016,08,13,11,43,16.80
2016,08,13,11,44,16.80
2016,08,13,11,45,16.80
2016,08,13,11,46,16.80
2016,08,13,11,47,16.80
2016,08,13,11,48,16.90
2016,08,13,11,49,16.90
2016,08,13,11,50,16.90
2016,08,13,11,51,16.90
2016,08,13,11,52,17.00
2016,08,13,11,53,17.00
2016,08,13,11,54,17.10
2016,08,13,11,55,17.10
2016,08,13,11,56,17.10
2016,08,13,11,57,17.10
2016,08,13,11,58,17.10
2016,08,13,11,59,17.10
2016,08,13,12,00,17.10
2016,08,13,12,01,17.10
2016,08,13,12,02,17.10
2016,08,13,12,03,17.10
2016,08,13,12,04,17.10
2016,08,13,12,05,17.00
2016,08,13,12,06,17.00
2016,08,13,12,07,16.90
2016,08,13,12,08,16.90
2016,08,13,12,09,16.90
2016,08,13,12,10,16.90
2016,08,13,12,11,16.90
2016,08,13,12,12,17.00
2016,08,13,12,13,17.10
2016,08,13,12,14,17.20
2016,08,13,12,15,17.30
2016,08,13,12,16,17.40
2016,08,13,12,17,17.60
2016,08,13,12,18,17.70
2016,08,13,12,19,17.80
2016,08,13,12,20,18.00
2016,08,13,12,21,18.20
2016,08,13,12,22,18.30
2016,08,13,12,23,18.50
2016,08,13,12,24,18.60
2016,08,13,12,25,18.80
2016,08,13,12,26,18.90
2016,08,13,12,27,19.00
2016,08,13,12,28,19.00
2016,08,13,12,29,19.10
2016,08,13,12,30,19.10
2016,08,13,12,31,19.20
2016,08,13,12,32,19.20
2016,08,13,12,33,19.30
2016,08,13,12,34,19.30
2016,08,13,12,35,19.40
2016,08,13,12,36,19.50
2016,08,13,12,37,19.60
2016,08,13,12,38,19.80
2016,08,13,12,39,20.00
2016,08,13,12,40,20.20
2016,08,13,12,41,20.40
2016,08,13,12,42,20.60
2016,08,13,12,43,20.80
2016,08,13,12,44,21.00
2016,08,13,12,45,21.10
2016,08,13,12,46,21.30
2016,08,13,12,47,21.40
2016,08,13,12,48,21.50
2016,08,13,12,49,21.60
2016,08,13,12,50,21.80
2016,08,13,12,51,21.80
2016,08,13,12,52,21.90
2016,08,13,12,53,22.00
2016,08,13,12,54,22.00
2016,08,13,12,55,22.10
2016,08,13,12,56,22.10
2016,08,13,12,57,22.20
2016,08,13,12,58,22.20
2016,08,13,12,59,22.20
2016,08,13,13,00,22.30
2016,08,13,13,01,22.30
2016,08,13,13,02,22.30
2016,08,13,13,03,22.30
2016,08,13,13,04,22.30
2016,08,13,13,05,22.40
2016,08,13,13,06,22.40
2016,08,13,13,07,22.40
2016,08,13,13,08,22.40
2016,08,13,13,09,22.50
2016,08,13,13,10,22.50
2016,08,13,13,11,22.50
2016,08,13,13,12,22.50
2016,08,13,13,13,22.50
2016,08,13,13,14,22.50
2016,08,13,13,15,22.50
2016,08,13,13,16,22.50
2016,08,13,13,17,22.60
2016,08,13,13,18,22.60
2016,08,13,13,19,22.60
2016,08,13,13,20,22.70
2016,08,13,13,21,22.70
2016,08,13,13,22,22.70
2016,08,13,13,23,22.70
2016,08,13,13,24,22.70
2016,08,13,13,25,22.80
2016,08,13,13,26,22.80
2016,08,13,13,27,22.80
2016,08,13,13,28,22.80
2016,08,13,13,29,22.80
2016,08,13,13,30,22.80
2016,08,13,13,31,22.80
2016,08,13,13,32,22.80
2016,08,13,13,33,22.80
2016,08,13,13,34,22.80
2016,08,13,13,35,22.80
2016,08,13,13,36,22.90
2016,08,13,13,37,22.90
2016,08,13,13,38,22.80
2016,08,13,13,39,22.80
2016,08,13,13,40,22.80
2016,08,13,13,41,22.80
2016,08,13,13,42,22.80
2016,08,13,13,43,22.80
2016,08,13,13,44,22.80
2016,08,13,13,45,22.80
2016,08,13,13,46,22.80
2016,08,13,13,47,22.80
2016,08,13,13,48,22.80
2016,08,13,13,49,22.80
2016,08,13,13,50,22.80
2016,08,13,13,51,22.80
2016,08,13,13,52,22.80
2016,08,13,13,53,22.80
2016,08,13,13,54,22.80
2016,08,13,13,55,22.80
2016,08,13,13,56,22.80
2016,08,13,13,57,22.80
2016,08,13,13,58,22.80
2016,08,13,13,59,22.80
2016,08,13,14,00,22.80
2016,08,13,14,01,22.80
2016,08,13,14,02,22.70
2016,08,13,14,03,22.70
2016,08,13,14,04,22.60
2016,08,13,14,05,22.60
2016,08,13,14,06,22.50
2016,08,13,14,07,22.50
2016,08,13,14,08,22.40
2016,08,13,14,09,22.40
2016,08,13,14,10,22.40
2016,08,13,14,11,22.40
2016,08,13,14,12,22.40
2016,08,13,14,13,22.40
2016,08,13,14,14,22.40
2016,08,13,14,15,22.40
2016,08,13,14,16,22.40
2016,08,13,14,17,22.40
2016,08,13,14,18,22.40
2016,08,13,14,19,22.40
2016,08,13,14,20,22.40
2016,08,13,14,21,22.50
2016,08,13,14,22,22.50
2016,08,13,14,23,22.60
2016,08,13,14,24,22.60
2016,08,13,14,25,22.70
2016,08,13,14,26,22.70
2016,08,13,14,27,22.80
2016,08,13,14,28,22.80
2016,08,13,14,29,22.90
2016,08,13,14,30,22.90
2016,08,13,14,31,22.90
2016,08,13,14,32,23.00
2016,08,13,14,33,23.00
2016,08,13,14,34,23.00
2016,08,13,14,35,23.10
2016,08,13,14,36,23.10
2016,08,13,14,37,23.20
2016,08,13,14,38,23.20
2016,08,13,14,39,23.20
2016,08,13,14,40,23.10
2016,08,13,14,41,23.00
2016,08,13,14,42,22.90
2016,08,13,14,43,22.70
2016,08,13,14,44,22.50
2016,08,13,14,45,22.40
2016,08,13,14,46,22.30
2016,08,13,14,47,22.30
2016,08,13,14,48,22.30
2016,08,13,14,49,22.40
2016,08,13,14,50,22.50
2016,08,13,14,51,22.60
2016,08,13,14,52,22.70
2016,08,13,14,53,22.70
2016,08,13,14,54,22.80
2016,08,13,14,55,22.80
2016,08,13,14,56,22.80
2016,08,13,14,57,22.80
2016,08,13,14,58,22.80
2016,08,13,14,59,22.70
2016,08,13,15,00,22.70
2016,08,13,15,01,22.70
2016,08,13,15,02,22.70
2016,08,13,15,03,22.80
2016,08,13,15,04,22.90
2016,08,13,15,05,23.00
2016,08,13,15,06,23.20
2016,08,13,15,07,23.30
2016,08,13,15,08,23.40
2016,08,13,15,09,23.50
2016,08,13,15,10,23.60
2016,08,13,15,11,23.70
2016,08,13,15,12,23.70
2016,08,13,15,13,23.80
2016,08,13,15,14,23.80
2016,08,13,15,15,23.90
2016,08,13,15,16,23.90
2016,08,13,15,17,24.00
2016,08,13,15,18,24.00
2016,08,13,15,19,24.10
2016,08,13,15,20,24.20
2016,08,13,15,21,24.20
2016,08,13,15,22,24.20
2016,08,13,15,23,24.20
2016,08,13,15,24,24.20
2016,08,13,15,25,24.20
2016,08,13,15,26,24.10
2016,08,13,15,27,24.10
2016,08,13,15,28,24.20
2016,08,13,15,29,24.20
2016,08,13,15,30,24.20
2016,08,13,15,31,24.20
2016,08,13,15,32,24.20
2016,08,13,15,33,24.20
2016,08,13,15,34,24.20
2016,08,13,15,35,24.10
2016,08,13,15,36,24.10
2016,08,13,15,37,24.10
2016,08,13,15,38,24.10
2016,08,13,15,39,24.10
2016,08,13,15,40,24.10
2016,08,13,15,41,24.00
2016,08,13,15,42,24.00
2016,08,13,15,43,24.00
2016,08,13,15,44,24.10
2016,08,13,15,45,24.10
2016,08,13,15,46,24.10
2016,08,13,15,47,24.10
2016,08,13,15,48,24.20
2016,08,13,15,49,24.20
2016,08,13,15,50,24.20
2016,08,13,15,51,24.20
2016,08,13,15,52,24.30
2016,08,13,15,53,24.30
2016,08,13,15,54,24.30
2016,08,13,15,55,24.30
2016,08,13,15,56,24.40
2016,08,13,15,57,24.40
2016,08,13,15,58,24.40
2016,08,13,15,59,24.40
2016,08,13,16,00,24.40
2016,08,13,16,01,24.50
2016,08,13,16,02,24.50
2016,08,13,16,03,24.50
2016,08,13,16,04,24.50
2016,08,13,16,05,24.50
2016,08,13,16,06,24.50
2016,08,13,16,07,24.50
2016,08,13,16,08,24.50
2016,08,13,16,09,24.50
2016,08,13,16,10,24.40
2016,08,13,16,11,24.40
2016,08,13,16,12,24.30
2016,08,13,16,13,24.30
2016,08,13,16,14,24.20
2016,08,13,16,15,24.20
2016,08,13,16,16,24.20
2016,08,13,16,17,24.20
2016,08,13,16,18,24.30
2016,08,13,16,19,24.30
2016,08,13,16,20,24.30
2016,08,13,16,21,24.40
2016,08,13,16,22,24.40
2016,08,13,16,23,24.40
2016,08,13,16,24,24.40
2016,08,13,16,25,24.40
2016,08,13,16,26,24.40
2016,08,13,16,27,24.50
2016,08,13,16,28,24.60
2016,08,13,16,29,24.60
2016,08,13,16,30,24.60
2016,08,13,16,31,24.60
2016,08,13,16,32,24.70
2016,08,13,16,33,24.70
2016,08,13,16,34,24.70
2016,08,13,16,35,24.80
2016,08,13,16,36,24.70
2016,08,13,16,37,24.70
2016,08,13,16,38,24.70
2016,08,13,16,39,24.70
2016,08,13,16,40,24.60
2016,08,13,16,41,24.70
2016,08,13,16,42,24.60
2016,08,13,16,43,24.60
2016,08,13,16,44,24.60
2016,08,13,16,45,24.50
2016,08,13,16,46,24.40
2016,08,13,16,47,24.30
2016,08,13,16,48,24.30
2016,08,13,16,49,24.20
2016,08,13,16,50,24.20
2016,08,13,16,51,24.30
2016,08,13,16,52,24.30
2016,08,13,16,53,24.30
2016,08,13,16,54,24.30
2016,08,13,16,55,24.40
2016,08,13,16,56,24.40
2016,08,13,16,57,24.40
2016,08,13,16,58,24.40
2016,08,13,16,59,24.20
2016,08,13,17,00,23.70
2016,08,13,17,01,23.30
2016,08,13,17,02,23.00
2016,08,13,17,03,22.90
2016,08,13,17,04,22.80
2016,08,13,17,05,22.80
2016,08,13,17,06,22.90
2016,08,13,17,07,22.90
2016,08,13,17,08,23.10
2016,08,13,17,09,23.20
2016,08,13,17,10,23.40
2016,08,13,17,11,23.50
2016,08,13,17,12,23.60
2016,08,13,17,13,23.60
2016,08,13,17,14,23.70
2016,08,13,17,15,23.60
2016,08,13,17,16,23.60
2016,08,13,17,17,23.60
2016,08,13,17,18,23.60
2016,08,13,17,19,23.60